owner,sensor,date,latitude,longitude,vertical_datum,direction_of_sea_water_velocity,sea_water_speed,upward_sea_water_velocity,qcFlag 
TABS,ioos:station:TABS:A:1,1996-04-17T00:00:00Z,29.5325,-93.8116,2.0,247.5482892,21.44547738,-99999.0,'11111222,11111222,99999999' 
TABS,ioos:station:TABS:A:1,1996-04-17T16:00:00Z,29.5325,-93.8116,2.0,247.5482892,21.44547738,-99999.0,'11111222,11111222,99999999' 
TABS,ioos:station:TABS:A:1,1996-04-17T16:30:00Z,29.5325,-93.8116,2.0,232.1300629,18.68484413,-99999.0,'11111222,11111222,99999999' 
TABS,ioos:station:TABS:A:1,1996-04-17T17:00:00Z,29.5325,-93.8116,2.0,234.618697,19.55060101,-99999.0,'11111222,11111222,99999999' 
TABS,ioos:station:TABS:A:1,1996-04-17T17:30:00Z,29.5325,-93.8116,2.0,237.5933992,20.30157629,-99999.0,'11111222,11111222,99999999' 
TABS,ioos:station:TABS:A:1,1996-04-17T18:00:00Z,29.5325,-93.8116,2.0,236.4898592,26.44546275,-99999.0,'11111222,11111222,99999999' 
TABS,ioos:station:TABS:A:1,1996-04-17T18:30:00Z,29.5325,-93.8116,2.0,243.1457236,25.72405295,-99999.0,'11111222,11111222,99999999' 
TABS,ioos:station:TABS:A:1,1996-04-17T19:00:00Z,29.5325,-93.8116,2.0,239.9731364,29.7761381,-99999.0,'11111222,11111222,99999999' 
TABS,ioos:station:TABS:A:1,1996-04-17T19:30:00Z,29.5325,-93.8116,2.0,243.2035604,34.38206073,-99999.0,'11111222,11111222,99999999' 
TABS,ioos:station:TABS:A:1,1996-04-17T20:00:00Z,29.5325,-93.8116,2.0,253.1599299,39.07559852,-99999.0,'11111222,11111222,99999999' 
TABS,ioos:station:TABS:A:1,1996-04-17T20:30:00Z,29.5325,-93.8116,2.0,251.5646734,41.93180177,-99999.0,'11111222,11111222,99999999' 
TABS,ioos:station:TABS:A:1,1996-04-17T21:00:00Z,29.5325,-93.8116,2.0,247.2374857,41.19858857,-99999.0,'11111222,11111222,99999999' 
TABS,ioos:station:TABS:A:1,1996-04-17T21:30:00Z,29.5325,-93.8116,2.0,249.4888576,42.95294402,-99999.0,'11111222,11111222,99999999' 
TABS,ioos:station:TABS:A:1,1996-04-17T22:00:00Z,29.5325,-93.8116,2.0,250.3235803,43.36183691,-99999.0,'11111222,11111222,99999999' 
TABS,ioos:station:TABS:A:1,1996-04-17T22:30:00Z,29.5325,-93.8116,2.0,251.0958547,45.99054359,-99999.0,'11111222,11111222,99999999' 
TABS,ioos:station:TABS:A:1,1996-04-17T23:00:00Z,29.5325,-93.8116,2.0,252.7733353,42.2764095,-99999.0,'11111222,11111222,99999999' 
TABS,ioos:station:TABS:A:1,1996-04-17T23:30:00Z,29.5325,-93.8116,2.0,252.3177578,50.04420446,-99999.0,'11111222,11111222,99999999' 
TABS,ioos:station:TABS:A:1,1996-04-18T00:00:00Z,29.5325,-93.8116,2.0,254.5167156,55.81553637,-99999.0,'11111222,11111222,99999999' 
TABS,ioos:station:TABS:A:1,1996-04-18T00:30:00Z,29.5325,-93.8116,2.0,254.1400331,57.77941242,-99999.0,'11111222,11111222,99999999' 
TABS,ioos:station:TABS:A:1,1996-04-18T01:00:00Z,29.5325,-93.8116,2.0,252.9521414,56.4189259,-99999.0,'11111222,11111222,99999999' 
TABS,ioos:station:TABS:A:1,1996-04-18T01:30:00Z,29.5325,-93.8116,2.0,256.5449598,60.21257095,-99999.0,'11111222,11111222,99999999' 
TABS,ioos:station:TABS:A:1,1996-04-18T02:00:00Z,29.5325,-93.8116,2.0,258.0967948,54.20547943,-99999.0,'11111222,11111222,99999999' 
TABS,ioos:station:TABS:A:1,1996-04-18T02:30:00Z,29.5325,-93.8116,2.0,263.0512355,60.3431852,-99999.0,'11111222,11111222,99999999' 
TABS,ioos:station:TABS:A:1,1996-04-18T03:00:00Z,29.5325,-93.8116,2.0,262.9332788,56.9022047,-99999.0,'11111222,11111222,99999999' 
TABS,ioos:station:TABS:A:1,1996-04-18T03:30:00Z,29.5325,-93.8116,2.0,265.7433075,52.1438098,-99999.0,'11111222,11111222,99999999' 
TABS,ioos:station:TABS:A:1,1996-04-18T04:00:00Z,29.5325,-93.8116,2.0,266.9173172,49.84210369,-99999.0,'11111222,11111222,99999999' 
TABS,ioos:station:TABS:A:1,1996-04-18T04:30:00Z,29.5325,-93.8116,2.0,266.1478875,46.59524654,-99999.0,'11111222,11111222,99999999' 
TABS,ioos:station:TABS:A:1,1996-04-18T05:00:00Z,29.5325,-93.8116,2.0,268.7818708,41.87945797,-99999.0,'11111222,11111222,99999999' 
TABS,ioos:station:TABS:A:1,1996-04-18T05:30:00Z,29.5325,-93.8116,2.0,274.6026557,42.74783035,-99999.0,'11111222,11111222,99999999' 
TABS,ioos:station:TABS:A:1,1996-04-18T06:00:00Z,29.5325,-93.8116,2.0,270.0004209,41.12,-99999.0,'11111222,11111222,99999999' 
TABS,ioos:station:TABS:A:1,1996-04-18T06:30:00Z,29.5325,-93.8116,2.0,273.5010194,43.89189561,-99999.0,'11111222,11111222,99999999' 
TABS,ioos:station:TABS:A:1,1996-04-18T07:00:00Z,29.5325,-93.8116,2.0,273.9051066,52.57203534,-99999.0,'11111222,11111222,99999999' 
TABS,ioos:station:TABS:A:1,1996-04-18T07:30:00Z,29.5325,-93.8116,2.0,266.7196853,52.08531847,-99999.0,'11111222,11111222,99999999' 
TABS,ioos:station:TABS:A:1,1996-04-18T08:00:00Z,29.5325,-93.8116,2.0,263.0889872,55.68454364,-99999.0,'11111222,11111222,99999999' 
TABS,ioos:station:TABS:A:1,1996-04-18T08:30:00Z,29.5325,-93.8116,2.0,269.6562214,50.06089891,-99999.0,'11111222,11111222,99999999' 
TABS,ioos:station:TABS:A:1,1996-04-18T09:00:00Z,29.5325,-93.8116,2.0,274.8689404,54.43640326,-99999.0,'11111222,11111222,99999999' 
TABS,ioos:station:TABS:A:1,1996-04-18T09:30:00Z,29.5325,-93.8116,2.0,269.5280637,54.68185165,-99999.0,'11111222,11111222,99999999' 
TABS,ioos:station:TABS:A:1,1996-04-18T10:00:00Z,29.5325,-93.8116,2.0,266.1704609,55.70435172,-99999.0,'11111222,11111222,99999999' 
TABS,ioos:station:TABS:A:1,1996-04-18T10:30:00Z,29.5325,-93.8116,2.0,264.5612323,55.07792026,-99999.0,'11111222,11111222,99999999' 
TABS,ioos:station:TABS:A:1,1996-04-18T11:00:00Z,29.5325,-93.8116,2.0,264.640721,52.68025152,-99999.0,'11111222,11111222,99999999' 
TABS,ioos:station:TABS:A:1,1996-04-18T11:30:00Z,29.5325,-93.8116,2.0,261.8659188,45.30574577,-99999.0,'11111222,11111222,99999999' 
TABS,ioos:station:TABS:A:1,1996-04-18T12:00:00Z,29.5325,-93.8116,2.0,259.174387,41.26431146,-99999.0,'11111222,11111222,99999999' 
TABS,ioos:station:TABS:A:1,1996-04-18T12:30:00Z,29.5325,-93.8116,2.0,263.9027456,39.26207458,-99999.0,'11111222,11111222,99999999' 
TABS,ioos:station:TABS:A:1,1996-04-18T13:00:00Z,29.5325,-93.8116,2.0,261.3848139,39.788908,-99999.0,'11111222,11111222,99999999' 
TABS,ioos:station:TABS:A:1,1996-04-18T13:30:00Z,29.5325,-93.8116,2.0,262.084447,33.54962444,-99999.0,'11111222,11111222,99999999' 
TABS,ioos:station:TABS:A:1,1996-04-18T14:00:00Z,29.5325,-93.8116,2.0,273.374701,42.98452047,-99999.0,'11111222,11111222,99999999' 
TABS,ioos:station:TABS:A:1,1996-04-18T14:30:00Z,29.5325,-93.8116,2.0,267.5516022,41.90824501,-99999.0,'11111222,11111222,99999999' 
TABS,ioos:station:TABS:A:1,1996-04-18T15:00:00Z,29.5325,-93.8116,2.0,256.0322886,30.24421432,-99999.0,'11111222,11111222,99999999' 
TABS,ioos:station:TABS:A:1,1996-04-18T15:30:00Z,29.5325,-93.8116,2.0,266.5977828,35.22206269,-99999.0,'11111222,11111222,99999999' 
TABS,ioos:station:TABS:A:1,1996-04-18T16:00:00Z,29.5325,-93.8116,2.0,272.2927011,41.00281088,-99999.0,'11111222,11111222,99999999' 
TABS,ioos:station:TABS:A:1,1996-04-18T16:30:00Z,29.5325,-93.8116,2.0,257.1509703,31.47818451,-99999.0,'11111222,11111222,99999999' 
TABS,ioos:station:TABS:A:1,1996-04-18T17:00:00Z,29.5325,-93.8116,2.0,255.44911,24.32002673,-99999.0,'11111222,11111222,99999999' 
TABS,ioos:station:TABS:A:1,1996-04-18T17:30:00Z,29.5325,-93.8116,2.0,250.8547957,22.71638396,-99999.0,'11111222,11111222,99999999' 
TABS,ioos:station:TABS:A:1,1996-04-18T18:00:00Z,29.5325,-93.8116,2.0,258.6849012,23.54766443,-99999.0,'11111222,11111222,99999999' 
TABS,ioos:station:TABS:A:1,1996-04-18T18:30:00Z,29.5325,-93.8116,2.0,256.781822,20.20527901,-99999.0,'11111222,11111222,99999999' 
TABS,ioos:station:TABS:A:1,1996-04-18T19:00:00Z,29.5325,-93.8116,2.0,246.3089451,27.82485939,-99999.0,'11111222,11111222,99999999' 
TABS,ioos:station:TABS:A:1,1996-04-18T19:30:00Z,29.5325,-93.8116,2.0,241.8191492,28.39593281,-99999.0,'11111222,11111222,99999999' 
TABS,ioos:station:TABS:A:1,1996-04-18T20:00:00Z,29.5325,-93.8116,2.0,242.9125485,29.45023769,-99999.0,'11111222,11111222,99999999' 
TABS,ioos:station:TABS:A:1,1996-04-18T20:30:00Z,29.5325,-93.8116,2.0,239.961214,28.56681466,-99999.0,'11111222,11111222,99999999' 
TABS,ioos:station:TABS:A:1,1996-04-18T21:00:00Z,29.5325,-93.8116,2.0,246.034944,26.41727654,-99999.0,'11111222,11111222,99999999' 
TABS,ioos:station:TABS:A:1,1996-04-18T21:30:00Z,29.5325,-93.8116,2.0,245.1525253,24.4646357,-99999.0,'11111222,11111222,99999999' 
TABS,ioos:station:TABS:A:1,1996-04-18T22:00:00Z,29.5325,-93.8116,2.0,247.564248,20.30702834,-99999.0,'11111222,11111222,99999999' 
TABS,ioos:station:TABS:A:1,1996-04-18T22:30:00Z,29.5325,-93.8116,2.0,238.1387697,18.07302133,-99999.0,'11111222,11111222,99999999' 
TABS,ioos:station:TABS:A:1,1996-04-18T23:00:00Z,29.5325,-93.8116,2.0,231.0198651,17.0575643,-99999.0,'11111222,11111222,99999999' 
TABS,ioos:station:TABS:A:1,1996-04-18T23:30:00Z,29.5325,-93.8116,2.0,237.2525304,17.3589199,-99999.0,'11111222,11111222,99999999' 
TABS,ioos:station:TABS:A:1,1996-04-19T00:00:00Z,29.5325,-93.8116,2.0,246.3756595,18.21664349,-99999.0,'11111222,11111222,99999999' 
TABS,ioos:station:TABS:A:1,1996-04-19T00:30:00Z,29.5325,-93.8116,2.0,272.555225,26.69653536,-99999.0,'11111222,11111222,99999999' 
TABS,ioos:station:TABS:A:1,1996-04-19T01:00:00Z,29.5325,-93.8116,2.0,273.489168,24.48537727,-99999.0,'11111222,11111222,99999999' 
TABS,ioos:station:TABS:A:1,1996-04-19T01:30:00Z,29.5325,-93.8116,2.0,271.0492476,24.58411886,-99999.0,'11111222,11111222,99999999' 
TABS,ioos:station:TABS:A:1,1996-04-19T02:00:00Z,29.5325,-93.8116,2.0,265.5042783,20.92436857,-99999.0,'11111222,11111222,99999999' 
TABS,ioos:station:TABS:A:1,1996-04-19T02:30:00Z,29.5325,-93.8116,2.0,264.67886,19.30317331,-99999.0,'11111222,11111222,99999999' 
TABS,ioos:station:TABS:A:1,1996-04-19T03:00:00Z,29.5325,-93.8116,2.0,272.0969458,16.40097863,-99999.0,'11111222,11111222,99999999' 
TABS,ioos:station:TABS:A:1,1996-04-19T03:30:00Z,29.5325,-93.8116,2.0,286.4206092,14.75165753,-99999.0,'11111222,11111222,99999999' 
TABS,ioos:station:TABS:A:1,1996-04-19T04:00:00Z,29.5325,-93.8116,2.0,278.7125513,12.80777889,-99999.0,'11111222,11111222,99999999' 
TABS,ioos:station:TABS:A:1,1996-04-19T04:30:00Z,29.5325,-93.8116,2.0,272.6511044,12.97388145,-99999.0,'11111222,11111222,99999999' 
TABS,ioos:station:TABS:A:1,1996-04-19T05:00:00Z,29.5325,-93.8116,2.0,266.0710922,12.99052347,-99999.0,'11111222,11111222,99999999' 
TABS,ioos:station:TABS:A:1,1996-04-19T05:30:00Z,29.5325,-93.8116,2.0,275.4148237,9.432083545,-99999.0,'11133222,11111222,99999999' 
TABS,ioos:station:TABS:A:1,1996-04-19T06:00:00Z,29.5325,-93.8116,2.0,275.7772129,10.33247308,-99999.0,'11111222,11111222,99999999' 
TABS,ioos:station:TABS:A:1,1996-04-19T06:30:00Z,29.5325,-93.8116,2.0,274.2981275,10.00814169,-99999.0,'11111222,11111222,99999999' 
TABS,ioos:station:TABS:A:1,1996-04-19T07:00:00Z,29.5325,-93.8116,2.0,275.5364806,10.78028293,-99999.0,'11111222,11111222,99999999' 
TABS,ioos:station:TABS:A:1,1996-04-19T07:30:00Z,29.5325,-93.8116,2.0,278.9860217,11.46065007,-99999.0,'11111222,11111222,99999999' 
TABS,ioos:station:TABS:A:1,1996-04-19T08:00:00Z,29.5325,-93.8116,2.0,272.162401,11.9284911,-99999.0,'11111222,11111222,99999999' 
TABS,ioos:station:TABS:A:1,1996-04-19T08:30:00Z,29.5325,-93.8116,2.0,256.4799451,12.10544506,-99999.0,'11111222,11111222,99999999' 
TABS,ioos:station:TABS:A:1,1996-04-19T09:00:00Z,29.5325,-93.8116,2.0,258.4461491,13.38112477,-99999.0,'11111222,11111222,99999999' 
TABS,ioos:station:TABS:A:1,1996-04-19T09:30:00Z,29.5325,-93.8116,2.0,255.7970535,13.36861997,-99999.0,'11111222,11111222,99999999' 
TABS,ioos:station:TABS:A:1,1996-04-19T10:00:00Z,29.5325,-93.8116,2.0,247.9540421,13.50760156,-99999.0,'11111222,11111222,99999999' 
TABS,ioos:station:TABS:A:1,1996-04-19T10:30:00Z,29.5325,-93.8116,2.0,234.6024361,15.17501236,-99999.0,'11111222,11111222,99999999' 
TABS,ioos:station:TABS:A:1,1996-04-19T11:00:00Z,29.5325,-93.8116,2.0,218.7290803,19.29215903,-99999.0,'11111222,11111222,99999999' 
TABS,ioos:station:TABS:A:1,1996-04-19T11:30:00Z,29.5325,-93.8116,2.0,209.5247666,37.49969733,-99999.0,'11111222,11111222,99999999' 
TABS,ioos:station:TABS:A:1,1996-04-19T12:00:00Z,29.5325,-93.8116,2.0,212.8102447,37.94319043,-99999.0,'11111222,11111222,99999999' 
TABS,ioos:station:TABS:A:1,1996-04-19T12:30:00Z,29.5325,-93.8116,2.0,217.0018651,36.38809695,-99999.0,'11111222,11111222,99999999' 
TABS,ioos:station:TABS:A:1,1996-04-19T13:00:00Z,29.5325,-93.8116,2.0,222.3532359,31.85377843,-99999.0,'11111222,11111222,99999999' 
TABS,ioos:station:TABS:A:1,1996-04-19T13:30:00Z,29.5325,-93.8116,2.0,223.433037,30.77772084,-99999.0,'11111222,11111222,99999999' 
TABS,ioos:station:TABS:A:1,1996-04-19T14:00:00Z,29.5325,-93.8116,2.0,224.7899135,28.97035899,-99999.0,'11111222,11111222,99999999' 
TABS,ioos:station:TABS:A:1,1996-04-19T14:30:00Z,29.5325,-93.8116,2.0,234.3435344,25.3036776,-99999.0,'11111222,11111222,99999999' 
TABS,ioos:station:TABS:A:1,1996-04-19T15:00:00Z,29.5325,-93.8116,2.0,239.1076241,24.65808589,-99999.0,'11111222,11111222,99999999' 
TABS,ioos:station:TABS:A:1,1996-04-19T15:30:00Z,29.5325,-93.8116,2.0,245.9210375,21.54467452,-99999.0,'11111222,11111222,99999999' 
TABS,ioos:station:TABS:A:1,1996-04-19T16:00:00Z,29.5325,-93.8116,2.0,250.3796899,18.19647493,-99999.0,'11111222,11111222,99999999' 
TABS,ioos:station:TABS:A:1,1996-04-19T16:30:00Z,29.5325,-93.8116,2.0,247.0527699,13.74791621,-99999.0,'11111222,11111222,99999999' 
TABS,ioos:station:TABS:A:1,1996-04-19T17:00:00Z,29.5325,-93.8116,2.0,269.2404056,11.32099377,-99999.0,'11111222,11111222,99999999' 
TABS,ioos:station:TABS:A:1,1996-04-19T17:30:00Z,29.5325,-93.8116,2.0,274.0552385,10.60654986,-99999.0,'11111222,11111222,99999999' 
TABS,ioos:station:TABS:A:1,1996-04-19T18:00:00Z,29.5325,-93.8116,2.0,286.8759392,8.715302634,-99999.0,'11133222,11111222,99999999' 
TABS,ioos:station:TABS:A:1,1996-04-19T18:30:00Z,29.5325,-93.8116,2.0,276.0760977,11.24315347,-99999.0,'11111222,11111222,99999999' 
TABS,ioos:station:TABS:A:1,1996-04-19T19:00:00Z,29.5325,-93.8116,2.0,270.6485341,13.26084839,-99999.0,'11111222,11111222,99999999' 
TABS,ioos:station:TABS:A:1,1996-04-19T19:30:00Z,29.5325,-93.8116,2.0,270.4770792,18.03062395,-99999.0,'11111222,11111222,99999999' 
TABS,ioos:station:TABS:A:1,1996-04-19T20:00:00Z,29.5325,-93.8116,2.0,284.8990815,21.4304503,-99999.0,'11111222,11111222,99999999' 
TABS,ioos:station:TABS:A:1,1996-04-19T20:30:00Z,29.5325,-93.8116,2.0,285.2635703,18.68922952,-99999.0,'11111222,11111222,99999999' 
TABS,ioos:station:TABS:A:1,1996-04-19T21:00:00Z,29.5325,-93.8116,2.0,271.8600159,18.48973769,-99999.0,'11111222,11111222,99999999' 
TABS,ioos:station:TABS:A:1,1996-04-19T21:30:00Z,29.5325,-93.8116,2.0,268.044855,17.59023593,-99999.0,'11111222,11111222,99999999' 
TABS,ioos:station:TABS:A:1,1996-04-19T22:00:00Z,29.5325,-93.8116,2.0,261.2583776,17.63483201,-99999.0,'11111222,11111222,99999999' 
TABS,ioos:station:TABS:A:1,1996-04-19T22:30:00Z,29.5325,-93.8116,2.0,256.4755978,16.54886703,-99999.0,'11111222,11111222,99999999' 
TABS,ioos:station:TABS:A:1,1996-04-19T23:00:00Z,29.5325,-93.8116,2.0,251.413839,16.81705087,-99999.0,'11111222,11111222,99999999' 
TABS,ioos:station:TABS:A:1,1996-04-19T23:30:00Z,29.5325,-93.8116,2.0,251.6889973,20.4030635,-99999.0,'11111222,11111222,99999999' 
TABS,ioos:station:TABS:A:1,1996-04-20T00:00:00Z,29.5325,-93.8116,2.0,263.7087288,23.08903203,-99999.0,'11111222,11111222,99999999' 
TABS,ioos:station:TABS:A:1,1996-04-20T00:30:00Z,29.5325,-93.8116,2.0,269.6499355,24.58045768,-99999.0,'11111222,11111222,99999999' 
TABS,ioos:station:TABS:A:1,1996-04-20T01:00:00Z,29.5325,-93.8116,2.0,276.2438667,28.78070534,-99999.0,'11111222,11111222,99999999' 
TABS,ioos:station:TABS:A:1,1996-04-20T01:30:00Z,29.5325,-93.8116,2.0,279.17345,28.98062284,-99999.0,'11111222,11111222,99999999' 
TABS,ioos:station:TABS:A:1,1996-04-20T02:00:00Z,29.5325,-93.8116,2.0,275.9596997,22.92388274,-99999.0,'11111222,11111222,99999999' 
TABS,ioos:station:TABS:A:1,1996-04-20T02:30:00Z,29.5325,-93.8116,2.0,278.1895035,21.97406198,-99999.0,'11111222,11111222,99999999' 
TABS,ioos:station:TABS:A:1,1996-04-20T03:00:00Z,29.5325,-93.8116,2.0,277.2268354,18.92028805,-99999.0,'11111222,11111222,99999999' 
TABS,ioos:station:TABS:A:1,1996-04-20T03:30:00Z,29.5325,-93.8116,2.0,284.7406293,17.56818147,-99999.0,'11111222,11111222,99999999' 
TABS,ioos:station:TABS:A:1,1996-04-20T04:00:00Z,29.5325,-93.8116,2.0,290.8729654,15.4648828,-99999.0,'11111222,11111222,99999999' 
TABS,ioos:station:TABS:A:1,1996-04-20T04:30:00Z,29.5325,-93.8116,2.0,290.9248737,14.19621428,-99999.0,'11111222,11111222,99999999' 
TABS,ioos:station:TABS:A:1,1996-04-20T05:00:00Z,29.5325,-93.8116,2.0,284.3624103,13.22325603,-99999.0,'11111222,11111222,99999999' 
TABS,ioos:station:TABS:A:1,1996-04-20T05:30:00Z,29.5325,-93.8116,2.0,286.3878821,15.8436391,-99999.0,'11111222,11111222,99999999' 
TABS,ioos:station:TABS:A:1,1996-04-20T06:00:00Z,29.5325,-93.8116,2.0,285.652897,19.34748821,-99999.0,'11111222,11111222,99999999' 
TABS,ioos:station:TABS:A:1,1996-04-20T06:30:00Z,29.5325,-93.8116,2.0,277.6181024,21.34840743,-99999.0,'11111222,11111222,99999999' 
TABS,ioos:station:TABS:A:1,1996-04-20T07:00:00Z,29.5325,-93.8116,2.0,280.7573175,21.5384772,-99999.0,'11111222,11111222,99999999' 
TABS,ioos:station:TABS:A:1,1996-04-20T07:30:00Z,29.5325,-93.8116,2.0,278.4146126,21.3902431,-99999.0,'11111222,11111222,99999999' 
TABS,ioos:station:TABS:A:1,1996-04-20T08:00:00Z,29.5325,-93.8116,2.0,274.9403029,20.78721242,-99999.0,'11111222,11111222,99999999' 
TABS,ioos:station:TABS:A:1,1996-04-20T08:30:00Z,29.5325,-93.8116,2.0,274.6102323,22.2720475,-99999.0,'11111222,11111222,99999999' 
TABS,ioos:station:TABS:A:1,1996-04-20T09:00:00Z,29.5325,-93.8116,2.0,272.4434802,20.87897747,-99999.0,'11111222,11111222,99999999' 
TABS,ioos:station:TABS:A:1,1996-04-20T09:30:00Z,29.5325,-93.8116,2.0,263.8538093,20.82971435,-99999.0,'11111222,11111222,99999999' 
TABS,ioos:station:TABS:A:1,1996-04-20T10:00:00Z,29.5325,-93.8116,2.0,264.6926785,22.5968604,-99999.0,'11111222,11111222,99999999' 
TABS,ioos:station:TABS:A:1,1996-04-20T10:30:00Z,29.5325,-93.8116,2.0,257.3379029,22.44585485,-99999.0,'11111222,11111222,99999999' 
TABS,ioos:station:TABS:A:1,1996-04-20T11:00:00Z,29.5325,-93.8116,2.0,244.0529611,19.06135357,-99999.0,'11111222,11111222,99999999' 
TABS,ioos:station:TABS:A:1,1996-04-20T11:30:00Z,29.5325,-93.8116,2.0,245.2400626,23.13690126,-99999.0,'11111222,11111222,99999999' 
TABS,ioos:station:TABS:A:1,1996-04-20T12:00:00Z,29.5325,-93.8116,2.0,233.0637541,27.77401843,-99999.0,'11111222,11111222,99999999' 
TABS,ioos:station:TABS:A:1,1996-04-20T12:30:00Z,29.5325,-93.8116,2.0,225.3624632,33.50339087,-99999.0,'11111222,11111222,99999999' 
TABS,ioos:station:TABS:A:1,1996-04-20T13:00:00Z,29.5325,-93.8116,2.0,223.2745032,34.99643553,-99999.0,'11111222,11111222,99999999' 
TABS,ioos:station:TABS:A:1,1996-04-20T13:30:00Z,29.5325,-93.8116,2.0,222.7333527,34.6895085,-99999.0,'11111222,11111222,99999999' 
TABS,ioos:station:TABS:A:1,1996-04-20T14:00:00Z,29.5325,-93.8116,2.0,224.6596896,34.55691682,-99999.0,'11111222,11111222,99999999' 
TABS,ioos:station:TABS:A:1,1996-04-20T14:30:00Z,29.5325,-93.8116,2.0,220.4576014,38.57361015,-99999.0,'11111222,11111222,99999999' 
TABS,ioos:station:TABS:A:1,1996-04-20T15:00:00Z,29.5325,-93.8116,2.0,217.6423804,41.96581704,-99999.0,'11111222,11111222,99999999' 
TABS,ioos:station:TABS:A:1,1996-04-20T15:30:00Z,29.5325,-93.8116,2.0,221.4206375,37.15314253,-99999.0,'11111222,11111222,99999999' 
TABS,ioos:station:TABS:A:1,1996-04-20T16:00:00Z,29.5325,-93.8116,2.0,226.3220841,36.46106554,-99999.0,'11111222,11111222,99999999' 
TABS,ioos:station:TABS:A:1,1996-04-20T16:30:00Z,29.5325,-93.8116,2.0,225.1760504,34.45747669,-99999.0,'11111222,11111222,99999999' 
TABS,ioos:station:TABS:A:1,1996-04-20T17:00:00Z,29.5325,-93.8116,2.0,229.6407184,31.28599047,-99999.0,'11111222,11111222,99999999' 
TABS,ioos:station:TABS:A:1,1996-04-20T17:30:00Z,29.5325,-93.8116,2.0,227.5793043,30.47890418,-99999.0,'11111222,11111222,99999999' 
TABS,ioos:station:TABS:A:1,1996-04-20T18:00:00Z,29.5325,-93.8116,2.0,235.6008144,26.90501812,-99999.0,'11111222,11111222,99999999' 
TABS,ioos:station:TABS:A:1,1996-04-20T18:30:00Z,29.5325,-93.8116,2.0,239.8916715,17.2238091,-99999.0,'11111222,11111222,99999999' 
TABS,ioos:station:TABS:A:1,1996-04-20T19:00:00Z,29.5325,-93.8116,2.0,236.3095903,16.1168142,-99999.0,'11111222,11111222,99999999' 
TABS,ioos:station:TABS:A:1,1996-04-20T19:30:00Z,29.5325,-93.8116,2.0,209.8666366,10.4821992,-99999.0,'11111222,11111222,99999999' 
TABS,ioos:station:TABS:A:1,1996-04-20T20:00:00Z,29.5325,-93.8116,2.0,242.2327598,9.594842365,-99999.0,'11133222,11111222,99999999' 
TABS,ioos:station:TABS:A:1,1996-04-20T20:30:00Z,29.5325,-93.8116,2.0,318.4831014,29.44881831,-99999.0,'11111222,11111222,99999999' 
TABS,ioos:station:TABS:A:1,1996-04-20T21:00:00Z,29.5325,-93.8116,2.0,325.4121061,39.63542481,-99999.0,'11111222,11111222,99999999' 
TABS,ioos:station:TABS:A:1,1996-04-20T21:30:00Z,29.5325,-93.8116,2.0,332.2493733,41.92183679,-99999.0,'11111222,11111222,99999999' 
TABS,ioos:station:TABS:A:1,1996-04-20T22:00:00Z,29.5325,-93.8116,2.0,331.5553743,42.53501616,-99999.0,'11111222,11111222,99999999' 
TABS,ioos:station:TABS:A:1,1996-04-20T22:30:00Z,29.5325,-93.8116,2.0,332.7297181,43.58426895,-99999.0,'11111222,11111222,99999999' 
TABS,ioos:station:TABS:A:1,1996-04-20T23:00:00Z,29.5325,-93.8116,2.0,329.7202922,47.28038177,-99999.0,'11111222,11111222,99999999' 
TABS,ioos:station:TABS:A:1,1996-04-20T23:30:00Z,29.5325,-93.8116,2.0,325.451141,49.39051022,-99999.0,'11111222,11111222,99999999' 
TABS,ioos:station:TABS:A:1,1996-04-21T00:00:00Z,29.5325,-93.8116,2.0,324.0268096,47.68383584,-99999.0,'11111222,11111222,99999999' 
TABS,ioos:station:TABS:A:1,1996-04-21T00:30:00Z,29.5325,-93.8116,2.0,323.9571223,45.32671839,-99999.0,'11111222,11111222,99999999' 
TABS,ioos:station:TABS:A:1,1996-04-21T01:00:00Z,29.5325,-93.8116,2.0,323.1979941,45.77203185,-99999.0,'11111222,11111222,99999999' 
TABS,ioos:station:TABS:A:1,1996-04-21T01:30:00Z,29.5325,-93.8116,2.0,321.3671246,43.67868244,-99999.0,'11111222,11111222,99999999' 
TABS,ioos:station:TABS:A:1,1996-04-21T02:00:00Z,29.5325,-93.8116,2.0,315.5482716,43.62341229,-99999.0,'11111222,11111222,99999999' 
TABS,ioos:station:TABS:A:1,1996-04-21T02:30:00Z,29.5325,-93.8116,2.0,315.9368477,44.99214376,-99999.0,'11111222,11111222,99999999' 
TABS,ioos:station:TABS:A:1,1996-04-21T03:00:00Z,29.5325,-93.8116,2.0,318.162489,38.19950261,-99999.0,'11111222,11111222,99999999' 
TABS,ioos:station:TABS:A:1,1996-04-21T03:30:00Z,29.5325,-93.8116,2.0,317.0816098,40.69255583,-99999.0,'11111222,11111222,99999999' 
TABS,ioos:station:TABS:A:1,1996-04-21T04:00:00Z,29.5325,-93.8116,2.0,315.5303998,45.09412933,-99999.0,'11111222,11111222,99999999' 
TABS,ioos:station:TABS:A:1,1996-04-21T04:30:00Z,29.5325,-93.8116,2.0,317.8063107,43.04370105,-99999.0,'11111222,11111222,99999999' 
TABS,ioos:station:TABS:A:1,1996-04-21T05:00:00Z,29.5325,-93.8116,2.0,320.8465582,41.30480965,-99999.0,'11111222,11111222,99999999' 
TABS,ioos:station:TABS:A:1,1996-04-21T05:30:00Z,29.5325,-93.8116,2.0,324.621889,43.49073465,-99999.0,'11111222,11111222,99999999' 
TABS,ioos:station:TABS:A:1,1996-04-21T06:00:00Z,29.5325,-93.8116,2.0,328.2379394,40.48274324,-99999.0,'11111222,11111222,99999999' 
TABS,ioos:station:TABS:A:1,1996-04-21T06:30:00Z,29.5325,-93.8116,2.0,331.8167333,40.05948702,-99999.0,'11111222,11111222,99999999' 
TABS,ioos:station:TABS:A:1,1996-04-21T07:00:00Z,29.5325,-93.8116,2.0,331.6726526,43.32866488,-99999.0,'11111222,11111222,99999999' 
TABS,ioos:station:TABS:A:1,1996-04-21T07:30:00Z,29.5325,-93.8116,2.0,337.1596496,39.9310656,-99999.0,'11111222,11111222,99999999' 
TABS,ioos:station:TABS:A:1,1996-04-21T08:00:00Z,29.5325,-93.8116,2.0,339.848009,39.35957444,-99999.0,'11111222,11111222,99999999' 
TABS,ioos:station:TABS:A:1,1996-04-21T08:30:00Z,29.5325,-93.8116,2.0,335.4384423,36.20617903,-99999.0,'11111222,11111222,99999999' 
TABS,ioos:station:TABS:A:1,1996-04-21T09:00:00Z,29.5325,-93.8116,2.0,332.7808206,34.84915637,-99999.0,'11111222,11111222,99999999' 
TABS,ioos:station:TABS:A:1,1996-04-21T09:30:00Z,29.5325,-93.8116,2.0,316.1051346,27.504496,-99999.0,'11111222,11111222,99999999' 